BLOCK DM-SL R/B, 29521

Orbit data source: Space-Track

BLOCK DM-SL R/B, 29521 is space debris in HEO originally from a launch on Mon, 30 Oct 2006 UTC launched from the Sea Launch (SEAL). Debris objects in space refer to the collection of defunct objects orbiting the Earth. Examples of debris include non-operational satellites, rocket bodies, and fragments generated from explosions, collisions, or faulty payload assembly.

Loading next visibility...
BLOCK DM-SL R/B details
Identifier
29521, 2006-049B
Orbit
HEO
Last TLE update23 hours ago
Origin
Flag of USSeaLaunch (US / SEAL)
ManufacturerRKKE
MissionSpacecraft
Bus & MotorBLOK DM2, 11D58M
Mass~3,070 kg wet, 3,070 kg dry
Launch date (UTC)
2006-10-30 (18 years ago)
Launch vehicleUnknown
Launch site
Sea Launch (SEAL)
Object type
Payload
Rocket body
Debris
Shape & HBRCyl, 6.3 m
Radar Cross Section23.684 m², Large (>1 m²)

Expand to show TLE details & history

TLE from 23 hours ago
0 BLOCK DM-SL R/B
1 29521U 06049B   25046.55397693 -.00000134  00000-0  00000-0 0  9991
2 29521   0.3699 319.9990 6941323 346.5834 311.3321  2.18872159146287
Epoch: 2025-02-15T13:17Z
Definitive object data (Epoch: 2025-02-15T13:17:43.606Z)
Latitude-0.17183°
Longitude-171.5812°
Altitude18,245.336 km
Speed4.058 km/s
True Right ascension11h 34m 36s
True Declination0° 10' 18"
Sunlit
Object was in daylight at TLE epoch
Visualization TLE readout
Latitude-0.31397°
Longitude-130.31501°
Altitude6,905.582 km
Speed6.641 km/s
Apparent Right ascension13h 58m 41s
Apparent Declination-26° 02' 07"
Sunlit
Object is in daylight
Visualization observer readout
Local Sidereal Time14:56:04
Azimuth193.963° SSW
Elevation22.708°
Doppler factor1
Orbital elements
Apogee altitude36,080.959 km
Perigee altitude1,287.655 km
Semi-major axis25,062.444 km
Eccentricity0.6941323
Inclination0.3699°
RAAN319.999°
Arg. of periapsis346.5834°
True anomaly227.18756°
Mean anomaly311.3321°
Eccentric anomaly271.5763°
Mean motion0.54703 °/min
BSTARUnknown
Orbital period658.1 mins
Loading maneuver chart data...
Loading historical data...
Loading historical data...
Loading historical data...
Loading historical data...
Loading historical data...
Loading historical data...
Loading historical data...
Other satellites on launch #49 in the year 2006 (2006-10-30 UTC)

BLOCK DM-SL R/B Visibility forecast

Observer location: undefined°, undefined

Span
Click to sort rows by Start time (UTC) header in descending order
Start Az.
Max El. time (UTC)
Max El. Az.
Max El.
End time (UTC)
End Az.
13 mins2025-02-16 12:09:35.371Z193.946° SSW2025-02-16 12:09:35.371Z193.946° SSW21.069°2025-02-16 12:22:35.371Z163.076° S
606 mins2025-02-17 00:04:35.371Z208.975° SW2025-02-17 05:59:35.371Z177.126° S34.676°2025-02-17 10:10:35.371Z140.554° SSE
|